This demonstration page uses our WeatherBlox Daily Observations layout. Learn more.

Left ArrowRight Arrow

Hourly Observations for September 24, 2021

Temp ( °F °C ) Dew Point ( °F °C ) Humidity (%) Winds ( mph kmh ) Pressure ( in mb ) Visibility ( mi km ) Precip ( " mm )
12:52 am 00:52 Partly Cloudy 65 18.3 48 8.9 54 54 SSE 12 19 29.89 1012 10 16 0.00 0.00
1:52 am 01:52 Partly Cloudy 64 17.8 48 8.9 56 56 S 12 19 29.88 1012 10 16 0.00 0.00
2:52 am 02:52 Mostly Cloudy 63 17.2 49 9.4 60 60 SSE 12 19 29.85 1011 10 16 0.00 0.00
3:52 am 03:52 Mostly Cloudy 62 16.7 49 9.4 62 62 SSE 10 17 29.83 1010 10 16 0.00 0.00
4:52 am 04:52 Mostly Cloudy 60 15.6 49 9.4 67 67 SSE 10 17 29.83 1010 10 16 0.00 0.00
5:52 am 05:52 Partly Cloudy 56 13.3 48 8.9 75 75 SSE 9 15 29.83 1010 10 16 0.00 0.00
6:52 am 06:52 Partly Cloudy 55 12.8 48 8.9 77 77 SSE 7 11 29.84 1010 10 16 0.00 0.00
7:52 am 07:52 Mostly Cloudy 57 13.9 50 10 78 78 SE 6 9 29.85 1011 10 16 0.00 0.00
8:52 am 08:52 Cloudy 60 15.6 50 10 70 70 Calm 29.86 1011 10 16 0.00 0.00
9:52 am 09:52 Cloudy 67 19.4 51 10.6 57 57 NNW 12 19 29.89 1012 10 16 0.00 0.00
10:52 am 10:52 Cloudy 67 19.4 52 11.1 59 59 NNW 15 24 29.91 1013 10 16 0.00 0.00
11:52 am 11:52 Cloudy with Light Rain 66 18.9 51 10.6 59 59 N 22 35 29.94 1014 10 16 0.00 0.00
12:52 pm 12:52 Cloudy 67 19.4 53 11.7 61 61 N 14 22 29.95 1014 10 16 0.00 0.00
1:52 pm 13:52 Cloudy with Light Rain 64 17.8 54 12.2 70 70 NNW 8 13 29.96 1015 10 16 0.00 0.00
2:52 pm 14:52 Mostly Cloudy 62 16.7 56 13.3 80 80 WNW 7 11 29.99 1016 10 16 0.03 0.76
3:52 pm 15:52 Mostly Cloudy 64 17.8 57 13.9 78 78 W 9 15 30.00 1016 10 16 0.00 0.00
4:52 pm 16:52 Mostly Cloudy 68 20 51 10.6 55 55 NNW 16 26 30.00 1016 10 16 0.00 0.00
5:52 pm 17:52 Mostly Cloudy 68 20 47 8.3 47 47 NNW 12 19 30.02 1017 10 16 0.00 0.00
6:52 pm 18:52 Mostly Cloudy 65 18.3 49 9.4 56 56 WNW 5 7 30.03 1017 10 16 0.00 0.00
7:52 pm 19:52 Partly Cloudy 62 16.7 49 9.4 62 62 W 6 9 30.05 1018 10 16 0.00 0.00
8:52 pm 20:52 Mostly Clear 62 16.7 46 7.8 56 56 WNW 8 13 30.06 1018 10 16 0.00 0.00
9:52 pm 21:52 Clear 57 13.9 46 7.8 67 67 N 3 6 30.08 1019 10 16 0.00 0.00
10:52 pm 22:52 Clear 55 12.8 45 7.2 69 69 N 5 7 30.09 1019 10 16 0.00 0.00
11:52 pm 23:52 Clear 52 11.1 45 7.2 77 77 NNW 5 7 30.10 1019 10 16 0.00 0.00

Powered by AerisWeather